Regional Weather Roundup
Issued by NWS Goodland, KS

Home | Current Version | Previous Version | Text Only | Print | Product List | Glossary On
Versions: 1 2 3 4 5 6 7 8 9 10 11 12 13 14 15 16 17 18 19 20 21 22 23 24 25 26 27 28 29 30 31 32 33 34 35 36 37 38 39 40 41 42 43 44 45 46 47 48 49 50
000
ASUS43 KGLD 012308
RWRGLD

GOODLAND FORECAST AREA HOURLY WEATHER ROUNDUP
NATIONAL WEATHER SERVICE GOODLAND KS
400 PM MST SUN MAR 01 2015

...OFFICIAL OBSERVATIONS...

CITY           SKY/WX    TMP DP  RH WIND       PRES   REMARKS
GOODLAND KS    CLOUDY    33  16  49 NE8       30.27S
HILL CITY KS   PTSUNNY   36  19  50 E5        30.34R
IMPERIAL NEB     N/A     37  12  35 N6        30.29R
MCCOOK NEB     PTSUNNY   40   9  28 N6        30.30S
AKRON CO       PTSUNNY   31  15  52 CALM      30.23S
BURLINGTON CO  PTSUNNY   31  17  56 NE10      30.25R
LIMON CO       CLOUDY    26  17  68 N7        30.22R
$$

...UNOFFICIAL OBSERVATIONS...

CITY           SKY/WX    TMP DP  RH WIND       PRES   REMARKS
COLBY KS       SUNNY     36  19  51 N8        30.29S
GOVE KS          N/A     35  32  89 MISG        N/A
LENORA KS        N/A     36  32  85 CALM        N/A
NORTON KS      SUNNY     37   9  30 N6        30.32R
TRIBUNE KS     CLOUDY    30  25  80 N3        30.29
KIT CARSON CO    N/A     30  22  70 MISG        N/A
YUMA CO          N/A     33  15  48 NE8         N/A
$$


USA.gov is the U.S. government's official web portal to all federal, state and local government web resources and services.